Location: Zagreb
(45.8000°N, 16.0000°E)
Time: 20:58:20
(UTC+01:00)

Oscar 11 - Pass Details

Date: 04 November 2020
Orbit: 613 x 625 km, 97.6° (Epoch: 01 December)

Event Time Altitude Azimuth Distance (km) Brightness Sun altitude
Rises 04:55:40 0° 34° (NE) 2,890 10.9 -18.6°
Reaches altitude 10° 04:59:26 10° 68° (ENE) 1,977 10.6 -18.0°
Maximum altitude 05:00:52 11° 88° (E) 1,880 10.8 -17.7°
Drops below altitude 10° 05:02:17 10° 107° (ESE) 1,973 10.9 -17.5°
Sets 05:06:01 0° 141° (SE) 2,872 11.2 -16.8°
